Weather History for KPRN - December, 2012

Change the Weather History Date:

Monday, December 3, 2012

  Actual Average Record
Temperature  
Mean Temperature 60 °F -  
Max Temperature 75 °F 63 °F 81 °F (1955)
Min Temperature 44 °F 40 °F 19 °F (1929)
Degree Days  
Heating Degree Days 6    
Growing Degree Days 10 (Base 50)    
Moisture  
Dew Point 48 °F    
Average Humidity 78    
Maximum Humidity 93    
Minimum Humidity 43    
Precipitation  
Precipitation 0.00 in - - ()
Sea Level Pressure  
Sea Level Pressure 30.25 in    
Wind  
Wind Speed 2 mph (SSE)    
Max Wind Speed 10 mph    
Max Gust Speed 17 mph    
Visibility 8 miles    
Events Fog    
Averages and records for this station are not official NWS values.
T = Trace of Precipitation, MM = Missing Value Source: NWS Daily Summary

Daily Weather History Graph

Daily Weather History Graph

Search for Another Location

Airport or City:

Trip Planner

Search our weather history database for the weather conditions in past years. The results will help you decide how hot, cold, wet, or windy it might be!

Date:

Astronomy

Dec. 03, 2012 Rise Set
Actual Time 6:30 AM CST 4:42 PM CST
Civil Twilight 6:04 AM CST 5:08 PM CST
Nautical Twilight 5:33 AM CST 5:38 PM CST
Astronomical Twilight 5:04 AM CST 6:08 PM CST
Moon 9:18 PM CST (12/3) 10:01 AM CST (12/3)
Length of Visible Light 11h 04m
Length of Day
10h 11m
Waning Gibbous, 78% of the Moon is Illuminated
Dec 3
Waning Gibbous
Dec 6
Last Quarter
Dec 13
New
Dec 19
First Quarter
Dec 28
Full

Hourly Weather History & Observations

Time (CST) Temp. Windchill Dew Point Humidity Pressure Visibility Wind Dir Wind Speed Gust Speed Precip Events Conditions
12:56 AM 46.9 °F - 44.1 °F 90% 30.25 in 10.0 mi Calm Calm - N/A   Clear
1:56 AM 45.0 °F 43.5 °F 42.1 °F 90% 30.26 in 10.0 mi North 3.5 mph - N/A   Clear
2:56 AM 46.0 °F - 43.0 °F 89% 30.25 in 10.0 mi Calm Calm - N/A   Clear
3:56 AM 45.0 °F - 42.1 °F 90% 30.25 in 6.0 mi Calm Calm - N/A   Clear
4:56 AM 45.0 °F - 42.1 °F 90% 30.25 in 8.0 mi Calm Calm - N/A   Clear
5:44 AM 44.6 °F - 41.0 °F 87% 30.25 in 9.0 mi Calm Calm - N/A   Partly Cloudy
5:56 AM 45.0 °F - 42.1 °F 90% 30.25 in 9.0 mi Calm Calm - N/A   Scattered Clouds
6:16 AM 44.6 °F - 41.0 °F 87% 30.26 in 9.0 mi Calm Calm - N/A   Mostly Cloudy
6:27 AM 44.6 °F - 42.8 °F 93% 30.27 in 1.5 mi Calm Calm - N/A   Mostly Cloudy
6:37 AM 44.6 °F - 42.8 °F 93% 30.27 in 4.0 mi Calm Calm - N/A   Overcast
6:56 AM 45.0 °F - 43.0 °F 93% 30.28 in 0.5 mi Calm Calm - N/A Fog Fog
7:11 AM 46.4 °F - 44.6 °F 93% 30.28 in 2.0 mi Calm Calm - N/A   Mostly Cloudy
7:23 AM 46.4 °F - 44.6 °F 93% 30.28 in 1.0 mi Calm Calm - N/A   Mist
7:42 AM 48.2 °F - 46.4 °F 93% 30.29 in 3.0 mi Calm Calm - N/A   Mostly Cloudy
7:56 AM 52.0 °F - 48.9 °F 89% 30.28 in 6.0 mi Calm Calm - N/A   Scattered Clouds
8:56 AM 62.1 °F - 57.0 °F 84% 30.29 in 10.0 mi SSE 3.5 mph - N/A   Mostly Cloudy
9:56 AM 70.0 °F - 57.9 °F 65% 30.29 in 10.0 mi SSE 10.4 mph - N/A   Mostly Cloudy
10:56 AM 73.0 °F - 55.0 °F 53% 30.27 in 10.0 mi SSE 10.4 mph - N/A   Mostly Cloudy
11:56 AM 73.9 °F - 54.0 °F 50% 30.24 in 10.0 mi SSE 6.9 mph 17.3 mph N/A   Scattered Clouds
12:56 PM 73.9 °F - 53.1 °F 48% 30.21 in 10.0 mi SSE 8.1 mph - N/A   Mostly Cloudy
1:56 PM 75.9 °F - 53.1 °F 45% 30.19 in 10.0 mi SSE 9.2 mph - N/A   Mostly Cloudy
2:56 PM 75.9 °F - 52.0 °F 43% 30.19 in 10.0 mi Variable 6.9 mph - N/A   Scattered Clouds
3:56 PM 73.0 °F - 53.1 °F 49% 30.20 in 10.0 mi SSW 4.6 mph - N/A   Scattered Clouds
4:56 PM 70.0 °F - 54.0 °F 57% 30.20 in 10.0 mi Calm Calm - N/A   Partly Cloudy
5:56 PM 66.9 °F - 55.0 °F 66% 30.22 in 10.0 mi SSE 3.5 mph - N/A   Scattered Clouds
6:56 PM 64.9 °F - 54.0 °F 68% 30.22 in 10.0 mi SE 3.5 mph - N/A   Clear
7:56 PM 59.0 °F - 53.1 °F 81% 30.23 in 10.0 mi Calm Calm - N/A   Clear
8:56 PM 57.0 °F - 52.0 °F 83% 30.22 in 10.0 mi Calm Calm - N/A   Clear
9:56 PM 53.1 °F - 51.1 °F 93% 30.23 in 10.0 mi North 3.5 mph - N/A   Clear
10:56 PM 53.1 °F - 51.1 °F 93% 30.22 in 10.0 mi Calm Calm - N/A   Clear
11:56 PM 50.0 °F - 46.9 °F 89% 30.22 in 10.0 mi Calm Calm - N/A   Clear